Other Public Products
Issued by NWS Charleston, SC

Current Version | Previous Version | Graphics & Text | Print | Product List | Glossary On
Versions: 1 2 3 4 5 6 7 8 9 10 11 12 13 14 15 16 17 18 19 20 21 22 23 24 25 26 27 28 29 30 31 32 33 34 35 36 37 38 39 40 41 42 43 44 45 46 47 48 49 50
000 FPUS82 KCHS 202040 OPUCHS TEST...KCHS/KSAV Gateway Observations...TEST National Weather Service Charleston SC 400 PM EDT WED SEP 20 2017 NOTE: "fair" indicates few or no clouds below 12,000 feet with no significant weather and/or obstructions to visibility. SCZ050-WAZ558-NCZ071-TXZ119-213-PAZ071-DCZ001-FLZ074-172-MI076- NYZ176-178-MAZ016-IL014-TNZ027-NJZ106-GAZ044-MD014-202100- ...Gateway Observations for Charleston International... CITY SKY/WX TMP DP RH WIND PRES REMARKS Chas Airport MOSUNNY 91 69 48 W3 29.96F HX 96 Seattle PTSUNNY 54 47 77 VRB3 29.72R Charlotte MOSUNNY 89 65 44 N3 29.99F HX 91 Dallas DFW PTSUNNY 95 71 45 S14G25 29.82F HX 102 Dallas Love MOSUNNY 96 71 44 S16G25 29.83F HX 103 Philladelphia MOSUNNY 86 62 44 N13 29.87F Wash National MOSUNNY 87 64 46 NW13 29.92F Baltimore MOSUNNY 87 63 44 NW10G18 29.90F Miami MOSUNNY 89 73 59 SE7 29.92F HX 97 Detroit MOSUNNY 80 65 59 S9 30.00S Newark CLOUDY 80 63 55 N17G28 29.88R Laguardia PTSUNNY 78 65 63 N20G28 29.87R J F K CLOUDY 80 65 59 N23 29.87R Boston Logan CLOUDY 68 67 96 N26G33 29.85F FOG Ft. Lauderdale MOSUNNY 93 74 53 E9 29.93F HX 103 Chicago O`Hare MOSUNNY 91 67 44 S17 29.86F HX 94 Chicago Midway MOSUNNY 92 68 45 SW16G26 29.88F HX 96 Houston Bush PTSUNNY 89 75 63 NE8 29.89F HX 99 Houston Hobby MOSUNNY 89 75 63 SE12G24 29.90F HX 99 Nashville MOSUNNY 88 70 55 E6 30.00F HX 93 Atlanta MOSUNNY 87 64 46 VRB5 30.02F $$ GAZ044-118-TXZ119-213-NCZ071-DCZ001-MDZ014-506-PAZ021-071-NJZ106- NYZ176-178-MAZ106-OHZ011-021-055-MIZ076-KYZ091-ILZ014-INZ047- MNZ060-ONZ431-202100- ...Gateway Observations for Savannah International... CITY SKY/WX TMP DP RH WIND PRES REMARKS Savannah Arpt CLOUDY 89 71 55 N7 29.96F HX 95 Atlanta MOSUNNY 87 64 46 VRB5 30.02F Charlotte MOSUNNY 89 65 44 N3 29.99F HX 91 Dallas DFW PTSUNNY 95 71 45 S14G25 29.82F HX 102 Houston Bush PTSUNNY 89 75 63 NE8 29.89F HX 99 Wash National MOSUNNY 87 64 46 NW13 29.92F Wash Dulles MOSUNNY 86 59 39 NW9 29.94F Baltimore MOSUNNY 87 63 44 NW10G18 29.90F Philadelphia MOSUNNY 86 62 44 N13 29.87F Newark CLOUDY 80 63 55 N17G28 29.88R Laguardia PTSUNNY 78 65 63 N20G28 29.87R J F K CLOUDY 80 65 59 N23 29.87R Boston CLOUDY 68 67 96 N26G33 29.85F FOG Pittsburg CLOUDY 80 63 55 NE6 30.01F Akron PTSUNNY 85 61 44 W6 30.01S Cleveland PTSUNNY 85 66 53 N13 30.01S Cincinnati PTSUNNY 85 70 60 VRB5 30.01F Columbus MOSUNNY 83 65 54 W8 29.99F Detroit MOSUNNY 80 65 59 S9 30.00S Chicago O`Hare MOSUNNY 91 67 44 S17 29.86F HX 94 Minneapolis SUNNY 75 53 46 W14 29.82R Indianapolis MOSUNNY 89 69 51 S10 29.97S HX 93 Toronto Canada MOSUNNY 75 66 73 SE9 30.01S $$

USA.gov is the U.S. government's official web portal to all federal, state and local government web resources and services.